DAL1491 KAUS-KATL

Flight info

Callsign DAL1491
Flight time 1h 37m
Altitude 33000
Route ILEXY4 ZENZI LFK AEX MERDN ORRKK HOBTT3
Aircraft A21N/M-SADE2E3GHIJ4J7M3P2RWXYZ/LB1D1

Departure

Time 2026-05-07 06:45
Airport Austin Bergstrom International Airport (KAUS)

Arrival

Time 2026-05-07 08:23
Airport Hartsfield Jackson Atlanta International Airport (KATL)
Time Latitude Longitude Altitude Speed Heading
2026-05-07 06:15 30.20296 -97.66282 507 ft 0 kts 224°
2026-05-07 06:31 30.20298 -97.66280 506 ft 3 kts 223°
2026-05-07 06:32 30.20312 -97.66266 506 ft 3 kts 212°
2026-05-07 06:32 30.20330 -97.66256 506 ft 3 kts 187°
2026-05-07 06:32 30.20345 -97.66257 506 ft 3 kts 135°
2026-05-07 06:32 30.20348 -97.66265 506 ft 1 kts 89°
2026-05-07 06:33 30.20348 -97.66269 506 ft 0 kts 89°
2026-05-07 06:34 30.20348 -97.66268 506 ft 0 kts 89°
2026-05-07 06:35 30.20349 -97.66251 506 ft 4 kts 89°
2026-05-07 06:35 30.20349 -97.66208 506 ft 6 kts 89°
2026-05-07 06:35 30.20340 -97.66155 506 ft 8 kts 139°
2026-05-07 06:35 30.20281 -97.66140 506 ft 10 kts 173°
2026-05-07 06:36 30.20207 -97.66134 506 ft 11 kts 179°
2026-05-07 06:36 30.20127 -97.66138 506 ft 7 kts 200°
2026-05-07 06:36 30.20097 -97.66188 506 ft 9 kts 264°
2026-05-07 06:36 30.20093 -97.66266 506 ft 11 kts 268°
2026-05-07 06:37 30.20094 -97.66349 506 ft 7 kts 271°
2026-05-07 06:37 30.20066 -97.66395 506 ft 9 kts 190°
2026-05-07 06:37 30.19999 -97.66395 506 ft 10 kts 179°
2026-05-07 06:37 30.19921 -97.66392 506 ft 12 kts 178°
2026-05-07 06:38 30.19861 -97.66384 506 ft 9 kts 146°
2026-05-07 06:38 30.19840 -97.66312 506 ft 11 kts 89°
2026-05-07 06:38 30.19841 -97.66220 506 ft 12 kts 89°
2026-05-07 06:38 30.19843 -97.66116 505 ft 14 kts 89°
2026-05-07 06:39 30.19844 -97.66006 499 ft 12 kts 88°
2026-05-07 06:39 30.19841 -97.65928 489 ft 9 kts 122°
2026-05-07 06:39 30.19775 -97.65902 486 ft 11 kts 172°
2026-05-07 06:39 30.19693 -97.65897 485 ft 13 kts 179°
2026-05-07 06:40 30.19598 -97.65895 487 ft 15 kts 179°
2026-05-07 06:40 30.19489 -97.65894 491 ft 17 kts 179°
2026-05-07 06:40 30.19366 -97.65893 491 ft 18 kts 179°
2026-05-07 06:40 30.19234 -97.65888 490 ft 20 kts 178°
2026-05-07 06:41 30.19094 -97.65884 492 ft 21 kts 178°
2026-05-07 06:41 30.18958 -97.65879 494 ft 17 kts 178°
2026-05-07 06:41 30.18834 -97.65876 489 ft 18 kts 179°
2026-05-07 06:41 30.18705 -97.65872 491 ft 19 kts 178°
2026-05-07 06:42 30.18571 -97.65868 485 ft 20 kts 178°
2026-05-07 06:42 30.18433 -97.65864 483 ft 14 kts 179°
2026-05-07 06:42 30.18338 -97.65864 480 ft 14 kts 180°
2026-05-07 06:42 30.18233 -97.65863 485 ft 16 kts 179°
2026-05-07 06:43 30.18137 -97.65861 483 ft 10 kts 179°
2026-05-07 06:43 30.18088 -97.65860 484 ft 12 kts 179°
2026-05-07 06:43 30.18002 -97.65857 487 ft 10 kts 179°
2026-05-07 06:43 30.17956 -97.65856 485 ft 8 kts 179°
2026-05-07 06:44 30.17917 -97.65810 486 ft 10 kts 100°
2026-05-07 06:44 30.17920 -97.65744 488 ft 7 kts 60°
2026-05-07 06:44 30.17969 -97.65730 487 ft 8 kts 357°
2026-05-07 06:44 30.18059 -97.65730 487 ft 33 kts
2026-05-07 06:45 30.18547 -97.65742 484 ft 106 kts 359°
2026-05-07 06:45 30.19483 -97.65749 514 ft 156 kts
2026-05-07 06:45 30.20464 -97.65738 1366 ft 132 kts 359°
2026-05-07 06:45 30.21386 -97.65880 1842 ft 137 kts 356°
2026-05-07 06:46 30.22383 -97.65917 2173 ft 154 kts
2026-05-07 06:46 30.23537 -97.65940 2491 ft 177 kts
2026-05-07 06:46 30.24818 -97.65838 2880 ft 193 kts 19°
2026-05-07 06:46 30.25956 -97.64946 3363 ft 207 kts 45°
2026-05-07 06:47 30.26960 -97.63670 3834 ft 225 kts 48°
2026-05-07 06:47 30.27890 -97.62103 4154 ft 250 kts 68°
2026-05-07 06:47 30.28360 -97.60099 4627 ft 267 kts 78°
2026-05-07 06:47 30.28739 -97.57957 5234 ft 277 kts 78°
2026-05-07 06:48 30.29134 -97.55753 5957 ft 281 kts 77°
2026-05-07 06:48 30.29548 -97.53537 6678 ft 285 kts 76°
2026-05-07 06:48 30.29983 -97.51266 7273 ft 293 kts 76°
2026-05-07 06:48 30.30434 -97.48945 7880 ft 299 kts 76°
2026-05-07 06:49 30.30893 -97.46572 8504 ft 305 kts 76°
2026-05-07 06:49 30.31363 -97.44152 9108 ft 311 kts 76°
2026-05-07 06:49 30.31847 -97.41680 9697 ft 318 kts 76°
2026-05-07 06:49 30.32339 -97.39159 10225 ft 327 kts 76°
2026-05-07 06:50 30.32849 -97.36528 10545 ft 342 kts 76°
2026-05-07 06:50 30.33385 -97.33780 10811 ft 359 kts 76°
2026-05-07 06:50 30.33951 -97.30893 11062 ft 376 kts 76°
2026-05-07 06:50 30.34534 -97.27871 11329 ft 392 kts 77°
2026-05-07 06:51 30.35136 -97.24741 11576 ft 406 kts 77°
2026-05-07 06:51 30.35746 -97.21506 12026 ft 414 kts 79°
2026-05-07 06:51 30.35924 -97.18190 12615 ft 416 kts 94°
2026-05-07 06:51 30.35724 -97.14831 13234 ft 419 kts 96°
2026-05-07 06:52 30.35506 -97.11456 13826 ft 423 kts 96°
2026-05-07 06:52 30.35295 -97.08086 14333 ft 427 kts 97°
2026-05-07 06:52 30.35083 -97.04592 14855 ft 432 kts 97°
2026-05-07 06:52 30.34877 -97.01115 15384 ft 435 kts 97°
2026-05-07 06:53 30.34670 -96.97598 15907 ft 439 kts 97°
2026-05-07 06:53 30.34462 -96.94057 16435 ft 444 kts 97°
2026-05-07 06:53 30.34250 -96.90480 16965 ft 448 kts 98°
2026-05-07 06:53 30.34034 -96.86860 17488 ft 452 kts 98°
2026-05-07 06:54 30.33819 -96.83268 18016 ft 456 kts 98°
2026-05-07 06:54 30.33595 -96.79542 18517 ft 460 kts 98°
2026-05-07 06:54 30.33368 -96.75882 18970 ft 464 kts 99°
2026-05-07 06:54 30.33132 -96.72102 19423 ft 467 kts 98°
2026-05-07 06:55 30.32897 -96.68336 19877 ft 471 kts 98°
2026-05-07 06:55 30.32661 -96.64542 20323 ft 475 kts 98°
2026-05-07 06:55 30.32422 -96.60714 20760 ft 478 kts 98°
2026-05-07 06:55 30.32180 -96.56863 21178 ft 482 kts 98°
2026-05-07 06:56 30.31935 -96.52976 21592 ft 486 kts 98°
2026-05-07 06:56 30.31685 -96.49061 21989 ft 489 kts 98°
2026-05-07 06:56 30.31432 -96.45116 22384 ft 493 kts 98°
2026-05-07 06:56 30.31176 -96.41150 22787 ft 497 kts 98°
2026-05-07 06:57 30.30917 -96.37153 23186 ft 500 kts 98°
2026-05-07 06:57 30.30656 -96.33117 23570 ft 504 kts 98°
2026-05-07 06:57 30.30392 -96.29071 23898 ft 507 kts 98°
2026-05-07 06:57 30.30125 -96.24984 24223 ft 510 kts 98°
2026-05-07 06:58 30.29856 -96.20895 24557 ft 512 kts 98°
2026-05-07 06:58 30.29585 -96.16778 24878 ft 514 kts 98°
2026-05-07 06:58 30.29317 -96.12653 25201 ft 517 kts 97°
2026-05-07 06:58 30.29415 -96.08467 25522 ft 525 kts 84°
2026-05-07 06:59 30.30350 -96.04378 25823 ft 530 kts 68°
2026-05-07 06:59 30.32112 -96.00636 26132 ft 531 kts 53°
2026-05-07 06:59 30.34379 -95.97248 26463 ft 532 kts 49°
2026-05-07 06:59 30.36688 -95.93900 26777 ft 535 kts 49°
2026-05-07 07:00 30.38990 -95.90499 27089 ft 537 kts 50°
2026-05-07 07:00 30.41276 -95.87054 27395 ft 540 kts 51°
2026-05-07 07:00 30.43551 -95.83595 27777 ft 540 kts 51°
2026-05-07 07:00 30.45826 -95.80138 28198 ft 539 kts 51°
2026-05-07 07:01 30.48095 -95.76686 28618 ft 539 kts 51°
2026-05-07 07:01 30.50366 -95.73231 29042 ft 538 kts 51°
2026-05-07 07:01 30.52632 -95.69784 29410 ft 538 kts 51°
2026-05-07 07:01 30.54902 -95.66324 29768 ft 538 kts 51°
2026-05-07 07:02 30.57165 -95.62868 30149 ft 537 kts 50°
2026-05-07 07:02 30.59426 -95.59418 30426 ft 538 kts 50°
2026-05-07 07:02 30.61687 -95.55963 30679 ft 538 kts 50°
2026-05-07 07:02 30.63951 -95.52502 30914 ft 539 kts 50°
2026-05-07 07:03 30.66223 -95.49027 31144 ft 540 kts 50°
2026-05-07 07:03 30.68496 -95.45546 31389 ft 541 kts 50°
2026-05-07 07:03 30.70765 -95.42065 31620 ft 541 kts 50°
2026-05-07 07:03 30.73036 -95.38573 31835 ft 542 kts 50°
2026-05-07 07:04 30.75310 -95.35081 32041 ft 543 kts 50°
2026-05-07 07:04 30.77590 -95.31583 32256 ft 543 kts 50°
2026-05-07 07:04 30.79879 -95.28072 32456 ft 544 kts 50°
2026-05-07 07:04 30.82160 -95.24568 32655 ft 545 kts 50°
2026-05-07 07:05 30.84450 -95.21045 32857 ft 545 kts 50°
2026-05-07 07:05 30.86731 -95.17526 33044 ft 544 kts 50°
2026-05-07 07:05 30.91263 -95.10521 33053 ft 541 kts 50°
2026-05-07 07:06 30.95793 -95.03510 33042 ft 542 kts 50°
2026-05-07 07:06 31.00318 -94.96493 33046 ft 542 kts 50°
2026-05-07 07:07 31.04849 -94.89459 33055 ft 543 kts 50°
2026-05-07 07:07 31.09379 -94.82413 33057 ft 543 kts 50°
2026-05-07 07:08 31.13813 -94.75284 33056 ft 545 kts 57°
2026-05-07 07:08 31.15490 -94.71313 33056 ft 547 kts 70°
2026-05-07 07:08 31.16471 -94.67033 33059 ft 546 kts 83°
2026-05-07 07:09 31.16996 -94.58177 33057 ft 543 kts 91°
2026-05-07 07:09 31.17358 -94.49432 33045 ft 543 kts 90°
2026-05-07 07:10 31.17789 -94.40584 33040 ft 543 kts 90°
2026-05-07 07:10 31.18218 -94.31787 33036 ft 542 kts 90°
2026-05-07 07:11 31.18639 -94.23047 33029 ft 542 kts 90°
2026-05-07 07:11 31.19054 -94.14205 33029 ft 542 kts 90°
2026-05-07 07:12 31.19463 -94.05421 33026 ft 542 kts 90°
2026-05-07 07:12 31.19865 -93.96636 33024 ft 541 kts 90°
2026-05-07 07:13 31.20258 -93.87861 33022 ft 541 kts 90°
2026-05-07 07:13 31.20646 -93.79081 33021 ft 541 kts 90°
2026-05-07 07:14 31.21030 -93.70314 33019 ft 540 kts 90°
2026-05-07 07:14 31.21403 -93.61552 33017 ft 540 kts 90°
2026-05-07 07:15 31.21770 -93.52795 33032 ft 539 kts 90°
2026-05-07 07:15 31.22130 -93.44048 33016 ft 539 kts 90°
2026-05-07 07:16 31.22489 -93.35314 33016 ft 538 kts 91°
2026-05-07 07:16 31.22841 -93.26573 33010 ft 538 kts 91°
2026-05-07 07:17 31.23183 -93.17856 33007 ft 537 kts 91°
2026-05-07 07:17 31.23524 -93.09138 33010 ft 536 kts 91°
2026-05-07 07:18 31.23859 -93.00438 33012 ft 536 kts 91°
2026-05-07 07:18 31.24185 -92.91739 33013 ft 536 kts 91°
2026-05-07 07:19 31.24506 -92.83043 33020 ft 535 kts 91°
2026-05-07 07:19 31.24820 -92.74367 33025 ft 535 kts 91°
2026-05-07 07:20 31.25128 -92.65687 33029 ft 534 kts 91°
2026-05-07 07:20 31.25432 -92.57015 33031 ft 534 kts 91°
2026-05-07 07:21 31.26283 -92.48398 33027 ft 538 kts 76°
2026-05-07 07:21 31.28812 -92.40145 33027 ft 539 kts 69°
2026-05-07 07:22 31.31489 -92.31972 33021 ft 539 kts 70°
2026-05-07 07:22 31.33679 -92.25142 33023 ft 539 kts 70°
2026-05-07 07:23 31.36294 -92.16928 33017 ft 539 kts 70°
2026-05-07 07:23 31.38905 -92.08709 33015 ft 539 kts 70°
2026-05-07 07:24 31.41531 -92.00429 33008 ft 539 kts 70°
2026-05-07 07:24 31.44133 -91.92203 33003 ft 539 kts 70°
2026-05-07 07:25 31.48028 -91.79854 32999 ft 539 kts 70°
2026-05-07 07:26 31.50617 -91.71612 33001 ft 539 kts 70°
2026-05-07 07:26 31.53186 -91.63421 33001 ft 539 kts 70°
2026-05-07 07:27 31.55779 -91.55123 33008 ft 539 kts 70°
2026-05-07 07:27 31.58354 -91.46864 33006 ft 539 kts 70°
2026-05-07 07:28 31.60925 -91.38597 33009 ft 540 kts 70°
2026-05-07 07:28 31.63475 -91.30376 33004 ft 540 kts 71°
2026-05-07 07:29 31.66035 -91.22102 33005 ft 540 kts 71°
2026-05-07 07:29 31.68592 -91.13814 33009 ft 539 kts 71°
2026-05-07 07:30 31.71141 -91.05534 33002 ft 539 kts 71°
2026-05-07 07:30 31.73683 -90.97251 33001 ft 539 kts 71°
2026-05-07 07:31 31.76225 -90.88948 32996 ft 539 kts 71°
2026-05-07 07:31 31.78754 -90.80659 32995 ft 539 kts 71°
2026-05-07 07:32 31.81277 -90.72378 32994 ft 539 kts 71°
2026-05-07 07:32 31.83796 -90.64088 32990 ft 539 kts 71°
2026-05-07 07:33 31.86311 -90.55778 32984 ft 539 kts 71°
2026-05-07 07:33 31.88824 -90.47458 32979 ft 540 kts 71°
2026-05-07 07:34 31.91332 -90.39132 32975 ft 540 kts 71°
2026-05-07 07:34 31.93834 -90.30806 32969 ft 540 kts 71°
2026-05-07 07:35 31.96328 -90.22482 32960 ft 540 kts 71°
2026-05-07 07:35 31.98820 -90.14135 32958 ft 540 kts 71°
2026-05-07 07:36 32.01305 -90.05793 32965 ft 540 kts 71°
2026-05-07 07:36 32.03783 -89.97453 32969 ft 540 kts 71°
2026-05-07 07:37 32.06263 -89.89089 32956 ft 540 kts 71°
2026-05-07 07:37 32.08730 -89.80744 32937 ft 540 kts 72°
2026-05-07 07:38 32.11193 -89.72385 32913 ft 539 kts 72°
2026-05-07 07:38 32.13652 -89.64017 32898 ft 539 kts 72°
2026-05-07 07:39 32.16101 -89.55660 32882 ft 539 kts 72°
2026-05-07 07:39 32.18547 -89.47296 32868 ft 539 kts 72°
2026-05-07 07:40 32.20986 -89.38922 32851 ft 539 kts 72°
2026-05-07 07:40 32.23422 -89.30541 32836 ft 540 kts 72°
2026-05-07 07:41 32.25853 -89.22151 32823 ft 540 kts 72°
2026-05-07 07:41 32.28279 -89.13758 32819 ft 540 kts 72°
2026-05-07 07:42 32.30697 -89.05364 32845 ft 539 kts 72°
2026-05-07 07:42 32.33106 -88.96971 32884 ft 539 kts 72°
2026-05-07 07:43 32.35514 -88.88577 32931 ft 539 kts 72°
2026-05-07 07:43 32.37865 -88.80162 32944 ft 538 kts 76°
2026-05-07 07:44 32.39576 -88.71554 32947 ft 537 kts 79°
2026-05-07 07:44 32.41222 -88.62940 32917 ft 537 kts 79°
2026-05-07 07:45 32.42875 -88.54330 32920 ft 535 kts 79°
2026-05-07 07:45 32.44519 -88.45738 32915 ft 535 kts 79°
2026-05-07 07:46 32.46156 -88.37147 32890 ft 534 kts 79°
2026-05-07 07:46 32.47784 -88.28565 32853 ft 534 kts 79°
2026-05-07 07:47 32.49403 -88.19998 32817 ft 534 kts 79°
2026-05-07 07:47 32.51018 -88.11411 32788 ft 534 kts 79°
2026-05-07 07:48 32.52621 -88.02835 32795 ft 534 kts 79°
2026-05-07 07:48 32.54233 -87.94244 32798 ft 533 kts 79°
2026-05-07 07:49 32.55851 -87.85664 32802 ft 534 kts 79°
2026-05-07 07:49 32.57466 -87.77075 32811 ft 533 kts 79°
2026-05-07 07:50 32.59071 -87.68479 32814 ft 533 kts 79°
2026-05-07 07:50 32.60666 -87.59913 32815 ft 532 kts 79°
2026-05-07 07:51 32.62255 -87.51349 32824 ft 531 kts 79°
2026-05-07 07:51 32.63835 -87.42792 32831 ft 531 kts 79°
2026-05-07 07:52 32.65408 -87.34241 32835 ft 530 kts 79°
2026-05-07 07:52 32.66973 -87.25701 32842 ft 529 kts 79°
2026-05-07 07:53 32.68529 -87.17173 32853 ft 529 kts 79°
2026-05-07 07:53 32.70079 -87.08632 32861 ft 528 kts 79°
2026-05-07 07:54 32.71620 -87.00122 32874 ft 528 kts 79°
2026-05-07 07:54 32.73157 -86.91599 32883 ft 527 kts 79°
2026-05-07 07:55 32.74683 -86.83098 32891 ft 527 kts 79°
2026-05-07 07:55 32.76204 -86.74587 32886 ft 526 kts 79°
2026-05-07 07:56 32.77715 -86.66099 32886 ft 525 kts 79°
2026-05-07 07:56 32.79218 -86.57613 32883 ft 524 kts 79°
2026-05-07 07:57 32.80714 -86.49143 32892 ft 523 kts 79°
2026-05-07 07:57 32.82191 -86.40697 32897 ft 522 kts 79°
2026-05-07 07:58 32.83673 -86.32263 32895 ft 520 kts 79°
2026-05-07 07:58 32.85143 -86.23848 32899 ft 519 kts 79°
2026-05-07 07:59 32.86604 -86.15435 32900 ft 518 kts 79°
2026-05-07 07:59 32.88053 -86.07041 32899 ft 518 kts 79°
2026-05-07 08:00 32.89497 -85.98648 32184 ft 518 kts 79°
2026-05-07 08:00 32.90220 -85.94414 31015 ft 528 kts 79°
2026-05-07 08:00 32.90949 -85.90124 30128 ft 530 kts 78°
2026-05-07 08:00 32.91685 -85.85817 29298 ft 530 kts 78°
2026-05-07 08:01 32.92410 -85.81538 28602 ft 527 kts 78°
2026-05-07 08:01 32.93132 -85.77272 27974 ft 523 kts 78°
2026-05-07 08:01 32.93848 -85.73040 27352 ft 519 kts 78°
2026-05-07 08:01 32.94558 -85.68849 26717 ft 516 kts 78°
2026-05-07 08:02 32.95024 -85.66078 26292 ft 514 kts 78°
2026-05-07 08:02 32.95724 -85.61912 25654 ft 511 kts 78°
2026-05-07 08:02 32.96420 -85.57785 25041 ft 509 kts 78°
2026-05-07 08:02 32.97112 -85.53664 24407 ft 506 kts 78°
2026-05-07 08:03 32.97797 -85.49567 23771 ft 502 kts 77°
2026-05-07 08:03 32.98481 -85.45495 23081 ft 498 kts 77°
2026-05-07 08:03 32.99157 -85.41467 22375 ft 494 kts 77°
2026-05-07 08:03 32.99827 -85.37472 21695 ft 489 kts 77°
2026-05-07 08:04 33.00485 -85.33521 21046 ft 484 kts 77°
2026-05-07 08:04 33.01130 -85.29612 20441 ft 479 kts 77°
2026-05-07 08:04 33.01829 -85.25757 19857 ft 472 kts 72°
2026-05-07 08:04 33.03010 -85.22161 19307 ft 460 kts 58°
2026-05-07 08:05 33.04751 -85.19043 18787 ft 446 kts 44°
2026-05-07 08:05 33.06804 -85.16325 18314 ft 439 kts 41°
2026-05-07 08:05 33.08901 -85.13675 17772 ft 438 kts 41°
2026-05-07 08:05 33.10979 -85.11026 17251 ft 437 kts 41°
2026-05-07 08:06 33.13041 -85.08369 16743 ft 435 kts 42°
2026-05-07 08:06 33.15090 -85.05720 16240 ft 434 kts 42°
2026-05-07 08:06 33.17125 -85.03077 15740 ft 432 kts 43°
2026-05-07 08:06 33.19153 -85.00438 15244 ft 430 kts 43°
2026-05-07 08:07 33.21171 -84.97807 14772 ft 429 kts 43°
2026-05-07 08:07 33.23179 -84.95202 14304 ft 426 kts 43°
2026-05-07 08:07 33.25189 -84.92593 13815 ft 424 kts 43°
2026-05-07 08:07 33.27161 -84.90013 13268 ft 418 kts 44°
2026-05-07 08:08 33.29108 -84.87466 12746 ft 410 kts 43°
2026-05-07 08:08 33.31022 -84.84970 12249 ft 404 kts 43°
2026-05-07 08:08 33.32945 -84.82606 12013 ft 395 kts 40°
2026-05-07 08:08 33.34915 -84.80309 11943 ft 393 kts 39°
2026-05-07 08:09 33.36865 -84.78044 11431 ft 390 kts 39°
2026-05-07 08:09 33.38801 -84.75800 11076 ft 382 kts 39°
2026-05-07 08:09 33.40663 -84.73632 10978 ft 366 kts 39°
2026-05-07 08:09 33.42438 -84.71559 10902 ft 349 kts 39°
2026-05-07 08:10 33.44154 -84.69557 10592 ft 341 kts 39°
2026-05-07 08:10 33.45849 -84.67585 10189 ft 339 kts 39°
2026-05-07 08:10 33.47513 -84.65642 9993 ft 328 kts 39°
2026-05-07 08:10 33.49128 -84.63756 9779 ft 322 kts 39°
2026-05-07 08:11 33.50729 -84.61887 9326 ft 320 kts 39°
2026-05-07 08:11 33.52307 -84.60003 8859 ft 321 kts 44°
2026-05-07 08:11 33.53479 -84.57711 8382 ft 326 kts 70°
2026-05-07 08:11 33.53816 -84.55051 7957 ft 323 kts 90°
2026-05-07 08:12 33.53783 -84.52368 7556 ft 321 kts 93°
2026-05-07 08:12 33.53724 -84.49720 7284 ft 314 kts 93°
2026-05-07 08:12 33.53690 -84.47151 7102 ft 304 kts 93°
2026-05-07 08:12 33.53672 -84.44666 6935 ft 293 kts 92°
2026-05-07 08:13 33.53669 -84.42259 6715 ft 285 kts 92°
2026-05-07 08:13 33.53667 -84.39899 6416 ft 282 kts 92°
2026-05-07 08:13 33.53667 -84.37581 6180 ft 274 kts 92°
2026-05-07 08:13 33.53665 -84.35345 5941 ft 263 kts 93°
2026-05-07 08:14 33.53662 -84.33203 5606 ft 258 kts 93°
2026-05-07 08:14 33.53658 -84.31020 5177 ft 259 kts 94°
2026-05-07 08:14 33.53655 -84.28869 4853 ft 257 kts 94°
2026-05-07 08:14 33.53652 -84.26771 4563 ft 254 kts 94°
2026-05-07 08:15 33.53657 -84.24667 4259 ft 250 kts 95°
2026-05-07 08:15 33.53666 -84.22597 4029 ft 248 kts 94°
2026-05-07 08:15 33.53673 -84.20492 3996 ft 250 kts 93°
2026-05-07 08:15 33.53965 -84.18463 3992 ft 254 kts 69°
2026-05-07 08:16 33.54988 -84.16777 3996 ft 252 kts 43°
2026-05-07 08:16 33.56269 -84.15398 3996 ft 239 kts 39°
2026-05-07 08:16 33.57480 -84.14181 4020 ft 216 kts 33°
2026-05-07 08:16 33.58833 -84.13528 3985 ft 215 kts
2026-05-07 08:17 33.60274 -84.13657 4004 ft 204 kts 336°
2026-05-07 08:17 33.61465 -84.14457 3993 ft 192 kts 309°
2026-05-07 08:17 33.62251 -84.15720 3991 ft 186 kts 287°
2026-05-07 08:17 33.62580 -84.17168 4004 ft 180 kts 271°
2026-05-07 08:18 33.62776 -84.18643 4021 ft 179 kts 274°
2026-05-07 08:18 33.62966 -84.20103 4013 ft 175 kts 272°
2026-05-07 08:18 33.63078 -84.21564 4025 ft 176 kts 269°
2026-05-07 08:18 33.63137 -84.23033 3979 ft 174 kts 266°
2026-05-07 08:19 33.63171 -84.24450 3812 ft 168 kts 265°
2026-05-07 08:19 33.63179 -84.25857 3612 ft 168 kts 265°
2026-05-07 08:19 33.63181 -84.27275 3401 ft 171 kts 265°
2026-05-07 08:19 33.63182 -84.28667 3198 ft 162 kts 264°
2026-05-07 08:20 33.63182 -84.29992 2990 ft 158 kts 263°
2026-05-07 08:20 33.63181 -84.31322 2767 ft 159 kts 264°
2026-05-07 08:20 33.63181 -84.32662 2561 ft 160 kts 264°
2026-05-07 08:20 33.63181 -84.33955 2359 ft 151 kts 264°
2026-05-07 08:21 33.63182 -84.35151 2173 ft 133 kts 264°
2026-05-07 08:21 33.63180 -84.36284 2000 ft 136 kts 261°
2026-05-07 08:21 33.63181 -84.37417 1784 ft 137 kts 265°
2026-05-07 08:21 33.63181 -84.38556 1603 ft 142 kts 265°
2026-05-07 08:22 33.63182 -84.39763 1413 ft 145 kts 269°
2026-05-07 08:22 33.63188 -84.40971 1193 ft 145 kts 267°
2026-05-07 08:22 33.63182 -84.42173 1054 ft 143 kts 268°
2026-05-07 08:22 33.63179 -84.43198 1043 ft 95 kts 269°
2026-05-07 08:23 33.63177 -84.43755 1040 ft 48 kts 270°
2026-05-07 08:23 33.63177 -84.43972 1039 ft 17 kts 274°
2026-05-07 08:23 33.63210 -84.44118 1040 ft 19 kts 292°
2026-05-07 08:23 33.63271 -84.44247 1040 ft 11 kts 302°
2026-05-07 08:24 33.63333 -84.44300 1040 ft 13 kts 17°
2026-05-07 08:24 33.63370 -84.44229 1040 ft 8 kts 67°
2026-05-07 08:24 33.63418 -84.44197 1040 ft 10 kts 356°
2026-05-07 08:24 33.63500 -84.44201 1041 ft 13 kts 359°
2026-05-07 08:25 33.63600 -84.44201 1042 ft 15 kts
2026-05-07 08:25 33.63663 -84.44163 1041 ft 8 kts 57°
2026-05-07 08:25 33.63671 -84.44089 1041 ft 10 kts 100°
2026-05-07 08:25 33.63665 -84.43996 1041 ft 12 kts 85°
2026-05-07 08:26 33.63664 -84.43760 1041 ft 16 kts 91°
2026-05-07 08:26 33.63662 -84.43631 1041 ft 2 kts 91°
2026-05-07 08:26 33.64136 -84.43538 1041 ft 0 kts 271°